| time (UTC) | temp C | wind direction | speed KPH | gust KPH | rain 1hr cm | rain 24hr cm | rain mn cm | humidity % | barometer mb |
| 20260505171456 | 28 | 158 | 3.2 | 25.7 | 0.00 | 0.00 | 0.00 | 38 | 1007.7 |
| 20260505170956 | 28 | 136 | 12.9 | 25.7 | 0.00 | 0.00 | 0.00 | 37 | 1007.7 |
| 20260505170456 | 28 | 218 | 14.5 | 20.9 | 0.00 | 0.00 | 0.00 | 37 | 1007.7 |
| 20260505165956 | 28 | 190 | 4.8 | 19.3 | 0.00 | 0.00 | 0.00 | 38 | 1007.7 |
| 20260505165456 | 28 | 175 | 11.3 | 16.1 | 0.00 | 0.00 | 0.00 | 38 | 1007.7 |
| 20260505164956 | 28 | 189 | 19.3 | 22.5 | 0.00 | 0.00 | 0.00 | 38 | 1007.7 |
| 20260505164456 | 28 | 177 | 9.7 | 20.9 | 0.00 | 0.00 | 0.00 | 39 | 1007.8 |
| 20260505163956 | 28 | 140 | 6.4 | 24.1 | 0.00 | 0.00 | 0.00 | 38 | 1007.8 |
| 20260505163456 | 28 | 142 | 3.2 | 14.5 | 0.00 | 0.00 | 0.00 | 40 | 1007.8 |
| 20260505162959 | 28 | 180 | 4.8 | 14.5 | 0.00 | 0.00 | 0.00 | 42 | 1008.1 |
| 20260505162456 | 28 | 190 | 6.4 | 20.9 | 0.00 | 0.00 | 0.00 | 39 | 1008.1 |
| 20260505161956 | 27 | 245 | 4.8 | 19.3 | 0.00 | 0.00 | 0.00 | 40 | 1008.1 |
| 20260505161456 | 27 | 212 | 8.0 | 20.9 | 0.00 | 0.00 | 0.00 | 40 | 1008.3 |
| 20260505160956 | 27 | 211 | 9.7 | 11.3 | 0.00 | 0.00 | 0.00 | 41 | 1008.3 |
| 20260505160459 | 27 | 154 | 6.4 | 19.3 | 0.00 | 0.00 | 0.00 | 42 | 1008.3 |
| 20260505152956 | 26 | 132 | 6.4 | 12.9 | 0.00 | 0.00 | 0.00 | 43 | 1008.5 |
| 20260505152456 | 26 | 212 | 11.3 | 19.3 | 0.00 | 0.00 | 0.00 | 44 | 1008.5 |
| 20260505151956 | 26 | 151 | 6.4 | 12.9 | 0.00 | 0.00 | 0.00 | 45 | 1008.5 |
| 20260505151459 | 26 | 160 | 6.4 | 11.3 | 0.00 | 0.00 | 0.00 | 44 | 1008.5 |
| 20260505150956 | 25 | 211 | 4.8 | 16.1 | 0.00 | 0.00 | 0.00 | 45 | 1008.5 |
| 20260505150458 | 25 | 190 | 1.6 | 12.9 | 0.00 | 0.00 | 0.00 | 46 | 1008.5 |
| 20260505140455 | 22 | 159 | 1.6 | 16.1 | 0.00 | 0.00 | 0.00 | 51 | 1009.2 |
| 20260505124955 | 19 | 196 | 8.0 | 16.1 | 0.00 | 0.00 | 0.00 | 62 | 1009.0 |
| 20260505124455 | 19 | 182 | 14.5 | 16.1 | 0.00 | 0.00 | 0.00 | 64 | 1008.9 |
| 20260505123955 | 18 | 174 | 3.2 | 20.9 | 0.00 | 0.00 | 0.00 | 67 | 1008.9 |
| 20260505123455 | 18 | 157 | 20.9 | 20.9 | 0.00 | 0.00 | 0.00 | 70 | 1008.9 |
| 20260505122955 | 17 | 133 | 1.6 | 6.4 | 0.00 | 0.00 | 0.00 | 72 | 1009.2 |
| 20260505122455 | 17 | 170 | 1.6 | 8.0 | 0.00 | 0.00 | 0.00 | 75 | 1009.2 |
| 20260505121955 | 16 | 147 | 3.2 | 9.7 | 0.00 | 0.00 | 0.00 | 77 | 1009.2 |
| 20260505121458 | 16 | 129 | 8.0 | 8.0 | 0.00 | 0.00 | 0.00 | 79 | 1008.9 |
| 20260505120955 | 15 | 180 | 1.6 | 4.8 | 0.00 | 0.00 | 0.00 | 81 | 1008.9 |
| 20260505120455 | 15 | 149 | 0.0 | 3.2 | 0.00 | 0.00 | 0.00 | 82 | 1008.9 |
| 20260505115955 | 15 | 75 | 0.0 | 3.2 | 0.00 | 0.00 | 0.00 | 82 | 1008.9 |
| 20260505115455 | 15 | 75 | 0.0 | 0.0 | 0.00 | 0.00 | 0.00 | 83 | 1008.9 |
| 20260505114955 | 14 | 75 | 0.0 | 0.0 | 0.00 | 0.00 | 0.00 | 83 | 1008.9 |
| 20260505114455 | 14 | 75 | 0.0 | 0.0 | 0.00 | 0.00 | 0.00 | 83 | 1008.9 |
| 20260505113955 | 14 | 75 | 0.0 | 0.0 | 0.00 | 0.00 | 0.00 | 83 | 1008.9 |
| 20260505113455 | 13 | 75 | 0.0 | 0.0 | 0.00 | 0.00 | 0.00 | 82 | 1008.9 |
| 20260505112955 | 13 | 75 | 0.0 | 0.0 | 0.00 | 0.00 | 0.00 | 82 | 1008.9 |
| 20260505112455 | 13 | 75 | 0.0 | 0.0 | 0.00 | 0.00 | 0.00 | 83 | 1008.9 |
| 20260505111955 | 13 | 75 | 0.0 | 3.2 | 0.00 | 0.00 | 0.00 | 83 | 1008.9 |
| 20260505111455 | 13 | 75 | 0.0 | 0.0 | 0.00 | 0.00 | 0.00 | 83 | 1008.9 |
| 20260505110955 | 13 | 75 | 0.0 | 0.0 | 0.00 | 0.00 | 0.00 | 82 | 1008.9 |
| 20260505110455 | 13 | 296 | 0.0 | 0.0 | 0.00 | 0.00 | 0.00 | 82 | 1008.9 |
| 20260505101955 | 13 | 183 | 0.0 | 0.0 | 0.00 | 0.00 | 0.00 | 79 | 1008.4 |
| 20260505101458 | 13 | 183 | 0.0 | 0.0 | 0.00 | 0.00 | 0.00 | 79 | 1008.3 |
| 20260505100957 | 13 | 183 | 0.0 | 0.0 | 0.00 | 0.00 | 0.00 | 79 | 1008.3 |
| 20260505100455 | 13 | 183 | 0.0 | 0.0 | 0.00 | 0.00 | 0.00 | 78 | 1008.3 |
| 20260505095955 | 13 | 183 | 0.0 | 0.0 | 0.00 | 0.00 | 0.00 | 78 | 1008.2 |
| 20260505095455 | 14 | 183 | 0.0 | 0.0 | 0.00 | 0.00 | 0.00 | 77 | 1008.2 |
| 20260505094958 | 14 | 183 | 0.0 | 0.0 | 0.00 | 0.00 | 0.00 | 77 | 1008.2 |
| 20260505094455 | 14 | 183 | 0.0 | 0.0 | 0.00 | 0.00 | 0.00 | 77 | 1008.2 |
| 20260505093955 | 14 | 183 | 0.0 | 0.0 | 0.00 | 0.00 | 0.00 | 76 | 1008.2 |
| 20260505093455 | 14 | 183 | 0.0 | 0.0 | 0.00 | 0.00 | 0.00 | 76 | 1008.2 |
| 20260505092955 | 15 | 183 | 0.0 | 0.0 | 0.00 | 0.00 | 0.00 | 76 | 1008.1 |
| 20260505092458 | 15 | 183 | 0.0 | 0.0 | 0.00 | 0.00 | 0.00 | 76 | 1008.1 |
| 20260505091955 | 15 | 183 | 0.0 | 0.0 | 0.00 | 0.00 | 0.00 | 76 | 1008.1 |
| 20260505091458 | 15 | 183 | 0.0 | 0.0 | 0.00 | 0.00 | 0.00 | 76 | 1008.0 |
| 20260505090955 | 15 | 183 | 0.0 | 0.0 | 0.00 | 0.00 | 0.00 | 76 | 1008.0 |
| 20260505090455 | 15 | 183 | 0.0 | 0.0 | 0.00 | 0.00 | 0.00 | 76 | 1008.0 |
| 20260505085955 | 15 | 183 | 0.0 | 0.0 | 0.00 | 0.00 | 0.00 | 76 | 1008.1 |
| 20260505085455 | 15 | 183 | 0.0 | 0.0 | 0.00 | 0.00 | 0.00 | 76 | 1008.1 |
| 20260505084958 | 15 | 183 | 0.0 | 0.0 | 0.00 | 0.00 | 0.00 | 76 | 1008.1 |
| 20260505084455 | 15 | 183 | 0.0 | 0.0 | 0.00 | 0.00 | 0.00 | 76 | 1008.2 |
| 20260505083958 | 15 | 183 | 0.0 | 0.0 | 0.00 | 0.00 | 0.00 | 76 | 1008.2 |
| 20260505083455 | 15 | 184 | 0.0 | 0.0 | 0.00 | 0.00 | 0.00 | 76 | 1008.2 |
| 20260505082955 | 15 | 184 | 0.0 | 1.6 | 0.00 | 0.00 | 0.00 | 76 | 1008.3 |
| 20260505082455 | 15 | 184 | 0.0 | 3.2 | 0.00 | 0.00 | 0.00 | 76 | 1008.3 |
| 20260505081955 | 15 | 155 | 1.6 | 6.4 | 0.00 | 0.00 | 0.00 | 76 | 1008.3 |
| 20260505081455 | 15 | 163 | 6.4 | 6.4 | 0.00 | 0.00 | 0.00 | 76 | 1008.3 |
| 20260505080955 | 15 | 181 | 3.2 | 6.4 | 0.00 | 0.00 | 0.00 | 76 | 1008.3 |
| 20260505080458 | 15 | 175 | 0.0 | 1.6 | 0.00 | 0.00 | 0.00 | 75 | 1008.3 |
| 20260505075955 | 15 | 175 | 0.0 | 4.8 | 0.00 | 0.00 | 0.00 | 75 | 1008.2 |
| 20260505075455 | 15 | 200 | 0.0 | 3.2 | 0.00 | 0.00 | 0.00 | 74 | 1008.2 |
| 20260505074955 | 15 | 200 | 0.0 | 0.0 | 0.00 | 0.00 | 0.00 | 74 | 1008.2 |
| 20260505074458 | 15 | 200 | 0.0 | 1.6 | 0.00 | 0.00 | 0.00 | 74 | 1008.1 |
| 20260505073955 | 15 | 200 | 0.0 | 1.6 | 0.00 | 0.00 | 0.00 | 74 | 1008.1 |
| 20260505073455 | 15 | 200 | 1.6 | 4.8 | 0.00 | 0.00 | 0.00 | 74 | 1008.1 |
| 20260505072958 | 15 | 200 | 4.8 | 4.8 | 0.00 | 0.00 | 0.00 | 74 | 1007.9 |
| 20260505072455 | 15 | 200 | 1.6 | 6.4 | 0.00 | 0.00 | 0.00 | 74 | 1007.9 |
| 20260505071955 | 15 | 157 | 3.2 | 6.4 | 0.00 | 0.00 | 0.00 | 74 | 1007.9 |
| 20260505071455 | 15 | 184 | 4.8 | 6.4 | 0.00 | 0.00 | 0.00 | 74 | 1007.8 |
| 20260505070955 | 15 | 188 | 6.4 | 8.0 | 0.00 | 0.00 | 0.00 | 74 | 1007.8 |
| 20260505070455 | 15 | 171 | 1.6 | 9.7 | 0.00 | 0.00 | 0.00 | 74 | 1007.8 |
| 20260505065958 | 15 | 177 | 1.6 | 8.0 | 0.00 | 0.00 | 0.00 | 74 | 1007.8 |
| 20260505065455 | 15 | 162 | 0.0 | 9.7 | 0.00 | 0.00 | 0.00 | 73 | 1007.8 |
| 20260505064957 | 15 | 170 | 1.6 | 8.0 | 0.00 | 0.00 | 0.00 | 73 | 1007.8 |
| 20260505064457 | 15 | 188 | 3.2 | 4.8 | 0.00 | 0.00 | 0.00 | 73 | 1007.8 |
| 20260505063954 | 15 | 161 | 1.6 | 4.8 | 0.00 | 0.00 | 0.00 | 73 | 1007.8 |
| 20260505063457 | 15 | 175 | 1.6 | 6.4 | 0.00 | 0.00 | 0.00 | 72 | 1007.8 |
| 20260505062955 | 15 | 162 | 3.2 | 8.0 | 0.00 | 0.00 | 0.00 | 72 | 1007.8 |
| 20260505062455 | 15 | 155 | 1.6 | 8.0 | 0.00 | 0.00 | 0.00 | 72 | 1007.8 |
| 20260505061954 | 15 | 165 | 3.2 | 9.7 | 0.00 | 0.00 | 0.00 | 72 | 1007.8 |
| 20260505061455 | 15 | 184 | 1.6 | 4.8 | 0.00 | 0.00 | 0.00 | 71 | 1007.9 |
| 20260505060954 | 15 | 178 | 3.2 | 6.4 | 0.00 | 0.00 | 0.00 | 71 | 1007.9 |
| 20260505060455 | 15 | 180 | 3.2 | 8.0 | 0.00 | 0.00 | 0.00 | 70 | 1007.9 |
| 20260505055954 | 15 | 166 | 4.8 | 11.3 | 0.00 | 0.00 | 0.00 | 70 | 1008.1 |
| 20260505055454 | 15 | 174 | 1.6 | 9.7 | 0.00 | 0.00 | 0.00 | 70 | 1008.1 |
| 20260505054955 | 16 | 183 | 3.2 | 9.7 | 0.00 | 0.00 | 0.00 | 69 | 1008.1 |
| 20260505054454 | 16 | 178 | 1.6 | 6.4 | 0.00 | 0.00 | 0.00 | 69 | 1008.3 |
| 20260505053957 | 16 | 194 | 6.4 | 9.7 | 0.00 | 0.00 | 0.00 | 69 | 1008.3 |
| 20260505053457 | 16 | 196 | 6.4 | 11.3 | 0.00 | 0.00 | 0.00 | 69 | 1008.3 |
| 20260505052957 | 16 | 173 | 4.8 | 11.3 | 0.00 | 0.00 | 0.00 | 68 | 1008.3 |
| 20260505052454 | 16 | 184 | 11.3 | 12.9 | 0.00 | 0.00 | 0.00 | 68 | 1008.3 |
| 20260505051954 | 16 | 186 | 6.4 | 11.3 | 0.00 | 0.00 | 0.00 | 68 | 1008.3 |
| 20260505051457 | 16 | 186 | 4.8 | 11.3 | 0.00 | 0.00 | 0.00 | 68 | 1008.3 |
| 20260505050954 | 16 | 184 | 6.4 | 11.3 | 0.00 | 0.00 | 0.00 | 67 | 1008.3 |
| 20260505050454 | 16 | 159 | 6.4 | 12.9 | 0.00 | 0.00 | 0.00 | 67 | 1008.3 |
| 20260505041454 | 16 | 188 | 6.4 | 11.3 | 0.00 | 0.00 | 0.00 | 65 | 1008.2 |
| 20260505040957 | 16 | 179 | 11.3 | 11.3 | 0.00 | 0.00 | 0.00 | 65 | 1008.2 |
| 20260505040454 | 16 | 173 | 3.2 | 8.0 | 0.00 | 0.00 | 0.00 | 65 | 1008.2 |
| 20260505035954 | 16 | 165 | 3.2 | 8.0 | 0.00 | 0.00 | 0.00 | 64 | 1008.2 |
| 20260505035454 | 16 | 172 | 1.6 | 12.9 | 0.00 | 0.00 | 0.00 | 64 | 1008.2 |
| 20260505034954 | 16 | 163 | 4.8 | 9.7 | 0.00 | 0.00 | 0.00 | 64 | 1008.2 |
| 20260505034454 | 16 | 181 | 4.8 | 8.0 | 0.00 | 0.00 | 0.00 | 64 | 1008.3 |
| 20260505033954 | 16 | 182 | 3.2 | 8.0 | 0.00 | 0.00 | 0.00 | 64 | 1008.3 |
| 20260505033454 | 16 | 163 | 3.2 | 11.3 | 0.00 | 0.00 | 0.00 | 63 | 1008.3 |
| 20260505032954 | 16 | 167 | 3.2 | 8.0 | 0.00 | 0.00 | 0.00 | 63 | 1008.3 |
| 20260505032457 | 16 | 148 | 3.2 | 4.8 | 0.00 | 0.00 | 0.00 | 63 | 1008.3 |
| 20260505031954 | 17 | 145 | 1.6 | 4.8 | 0.00 | 0.00 | 0.00 | 62 | 1008.3 |
| 20260505031454 | 17 | 132 | 1.6 | 6.4 | 0.00 | 0.00 | 0.00 | 62 | 1008.5 |
| 20260505030954 | 17 | 161 | 3.2 | 9.7 | 0.00 | 0.00 | 0.00 | 61 | 1008.5 |
| 20260505030454 | 17 | 171 | 6.4 | 6.4 | 0.00 | 0.00 | 0.00 | 61 | 1008.5 |
| 20260505025954 | 17 | 148 | 0.0 | 8.0 | 0.00 | 0.00 | 0.00 | 60 | 1008.5 |
| 20260505025457 | 17 | 150 | 1.6 | 4.8 | 0.00 | 0.00 | 0.00 | 60 | 1008.5 |
| 20260505024954 | 17 | 171 | 3.2 | 6.4 | 0.00 | 0.00 | 0.00 | 59 | 1008.5 |
| 20260505024454 | 17 | 146 | 1.6 | 4.8 | 0.00 | 0.00 | 0.00 | 58 | 1008.4 |
| 20260505023954 | 17 | 145 | 0.0 | 6.4 | 0.00 | 0.00 | 0.00 | 57 | 1008.4 |
| 20260505023454 | 17 | 148 | 3.2 | 6.4 | 0.00 | 0.00 | 0.00 | 57 | 1008.4 |
| 20260505022957 | 17 | 139 | 0.0 | 4.8 | 0.00 | 0.00 | 0.00 | 56 | 1008.6 |
| 20260505022454 | 17 | 134 | 3.2 | 3.2 | 0.00 | 0.00 | 0.00 | 55 | 1008.6 |
| 20260505021957 | 17 | 144 | 1.6 | 4.8 | 0.00 | 0.00 | 0.00 | 55 | 1008.6 |
| 20260505021454 | 18 | 136 | 1.6 | 6.4 | 0.00 | 0.00 | 0.00 | 54 | 1008.6 |
| 20260505020954 | 18 | 138 | 1.6 | 8.0 | 0.00 | 0.00 | 0.00 | 53 | 1008.6 |
| 20260505020454 | 18 | 150 | 3.2 | 8.0 | 0.00 | 0.00 | 0.00 | 52 | 1008.6 |
| 20260505015954 | 18 | 202 | 8.0 | 8.0 | 0.00 | 0.00 | 0.00 | 51 | 1008.5 |
| 20260505015454 | 18 | 163 | 4.8 | 8.0 | 0.00 | 0.00 | 0.00 | 51 | 1008.5 |
| 20260505014954 | 18 | 157 | 8.0 | 8.0 | 0.00 | 0.00 | 0.00 | 50 | 1008.5 |
| 20260505014454 | 18 | 130 | 1.6 | 8.0 | 0.00 | 0.00 | 0.00 | 49 | 1008.3 |
| 20260505013954 | 18 | 171 | 3.2 | 6.4 | 0.00 | 0.00 | 0.00 | 48 | 1008.3 |
| 20260505013454 | 18 | 154 | 3.2 | 4.8 | 0.00 | 0.00 | 0.00 | 46 | 1008.3 |
| 20260505012954 | 19 | 149 | 4.8 | 4.8 | 0.00 | 0.00 | 0.00 | 45 | 1008.3 |
| 20260505012454 | 19 | 119 | 3.2 | 6.4 | 0.00 | 0.00 | 0.00 | 45 | 1008.3 |
| 20260505011954 | 19 | 145 | 3.2 | 4.8 | 0.00 | 0.00 | 0.00 | 44 | 1008.3 |
| 20260505011454 | 19 | 148 | 4.8 | 6.4 | 0.00 | 0.00 | 0.00 | 44 | 1007.8 |
| 20260505010954 | 19 | 153 | 0.0 | 3.2 | 0.00 | 0.00 | 0.00 | 43 | 1007.8 |
| 20260505010454 | 20 | 153 | 1.6 | 3.2 | 0.00 | 0.00 | 0.00 | 43 | 1007.8 |
| 20260505005954 | 20 | 150 | 3.2 | 4.8 | 0.00 | 0.00 | 0.00 | 43 | 1007.8 |
| 20260505005454 | 20 | 148 | 1.6 | 11.3 | 0.00 | 0.00 | 0.00 | 43 | 1007.8 |
| 20260505004954 | 20 | 148 | 1.6 | 4.8 | 0.00 | 0.00 | 0.00 | 42 | 1007.8 |
| 20260505004454 | 20 | 148 | 0.0 | 4.8 | 0.00 | 0.00 | 0.00 | 41 | 1007.7 |
| 20260505003954 | 20 | 196 | 1.6 | 3.2 | 0.00 | 0.00 | 0.00 | 41 | 1007.7 |
| 20260505003454 | 20 | 196 | 0.0 | 3.2 | 0.00 | 0.00 | 0.00 | 40 | 1007.7 |
| 20260505002954 | 20 | 196 | 0.0 | 1.6 | 0.00 | 0.00 | 0.00 | 40 | 1007.6 |
| 20260505002457 | 21 | 196 | 0.0 | 8.0 | 0.00 | 0.00 | 0.00 | 39 | 1007.6 |
| 20260505001954 | 21 | 164 | 1.6 | 11.3 | 0.00 | 0.00 | 0.00 | 39 | 1007.6 |
| 20260505001457 | 21 | 167 | 4.8 | 8.0 | 0.00 | 0.00 | 0.00 | 39 | 1007.4 |
| 20260505000954 | 21 | 195 | 8.0 | 9.7 | 0.00 | 0.00 | 0.00 | 39 | 1007.4 |
| 20260505000454 | 21 | 157 | 3.2 | 11.3 | 0.00 | 0.00 | 0.00 | 38 | 1007.4 |
| 20260504235956 | 21 | 181 | 8.0 | 9.7 | 0.00 | 0.00 | 0.00 | 38 | 1007.3 |
| 20260504235454 | 21 | 180 | 3.2 | 14.5 | 0.00 | 0.00 | 0.00 | 38 | 1007.3 |
| 20260504234957 | 21 | 175 | 6.4 | 16.1 | 0.00 | 0.00 | 0.00 | 37 | 1007.3 |
| 20260504234454 | 21 | 171 | 1.6 | 12.9 | 0.00 | 0.00 | 0.00 | 37 | 1007.2 |
| 20260504233954 | 21 | 180 | 6.4 | 11.3 | 0.00 | 0.00 | 0.00 | 37 | 1007.2 |
| 20260504233454 | 21 | 188 | 12.9 | 12.9 | 0.00 | 0.00 | 0.00 | 37 | 1007.2 |
| 20260504232954 | 22 | 179 | 14.5 | 22.5 | 0.00 | 0.00 | 0.00 | 36 | 1007.1 |
| 20260504232454 | 22 | 153 | 3.2 | 16.1 | 0.00 | 0.00 | 0.00 | 36 | 1007.1 |
| 20260504231954 | 22 | 144 | 11.3 | 19.3 | 0.00 | 0.00 | 0.00 | 35 | 1007.1 |
| 20260504231454 | 22 | 169 | 6.4 | 12.9 | 0.00 | 0.00 | 0.00 | 35 | 1007.1 |
| 20260504230954 | 22 | 184 | 11.3 | 20.9 | 0.00 | 0.00 | 0.00 | 35 | 1007.1 |
| 20260504230454 | 22 | 166 | 12.9 | 16.1 | 0.00 | 0.00 | 0.00 | 35 | 1007.1 |
| 20260504225954 | 22 | 186 | 17.7 | 20.9 | 0.00 | 0.00 | 0.00 | 34 | 1006.9 |
| 20260504225454 | 22 | 154 | 8.0 | 16.1 | 0.00 | 0.00 | 0.00 | 35 | 1006.9 |
| 20260504224954 | 22 | 174 | 6.4 | 17.7 | 0.00 | 0.00 | 0.00 | 35 | 1006.9 |
| 20260504224454 | 22 | 157 | 3.2 | 19.3 | 0.00 | 0.00 | 0.00 | 35 | 1007.0 |
| 20260504223956 | 22 | 187 | 8.0 | 14.5 | 0.00 | 0.00 | 0.00 | 34 | 1007.0 |
| 20260504223454 | 22 | 186 | 6.4 | 16.1 | 0.00 | 0.00 | 0.00 | 35 | 1007.0 |
| 20260504222954 | 22 | 186 | 4.8 | 25.7 | 0.00 | 0.00 | 0.00 | 33 | 1007.0 |
| 20260504222454 | 22 | 175 | 9.7 | 19.3 | 0.00 | 0.00 | 0.00 | 33 | 1007.0 |
| 20260504221956 | 22 | 174 | 4.8 | 29.0 | 0.00 | 0.00 | 0.00 | 33 | 1007.0 |
| 20260504221453 | 22 | 187 | 9.7 | 16.1 | 0.00 | 0.00 | 0.00 | 33 | 1007.2 |
| 20260504220956 | 22 | 171 | 14.5 | 22.5 | 0.00 | 0.00 | 0.00 | 32 | 1007.2 |
| 20260504220454 | 22 | 215 | 9.7 | 20.9 | 0.00 | 0.00 | 0.00 | 32 | 1007.2 |
| 20260504215954 | 22 | 176 | 12.9 | 20.9 | 0.00 | 0.00 | 0.00 | 33 | 1007.2 |
| 20260504215453 | 22 | 121 | 4.8 | 17.7 | 0.00 | 0.00 | 0.00 | 34 | 1007.2 |
| 20260504214953 | 22 | 181 | 9.7 | 25.7 | 0.00 | 0.00 | 0.00 | 33 | 1007.2 |
| 20260504214453 | 22 | 190 | 4.8 | 12.9 | 0.00 | 0.00 | 0.00 | 33 | 1007.2 |
| 20260504213953 | 22 | 183 | 4.8 | 20.9 | 0.00 | 0.00 | 0.00 | 33 | 1007.2 |
| 20260504213453 | 22 | 159 | 9.7 | 20.9 | 0.00 | 0.00 | 0.00 | 34 | 1007.2 |
| 20260504212953 | 22 | 200 | 12.9 | 17.7 | 0.00 | 0.00 | 0.00 | 33 | 1007.2 |
| 20260504212453 | 22 | 185 | 6.4 | 20.9 | 0.00 | 0.00 | 0.00 | 32 | 1007.2 |
| 20260504211953 | 23 | 191 | 11.3 | 22.5 | 0.00 | 0.00 | 0.00 | 32 | 1007.2 |
| 20260504211453 | 22 | 173 | 6.4 | 25.7 | 0.00 | 0.00 | 0.00 | 32 | 1007.3 |
| 20260504210953 | 23 | 204 | 11.3 | 14.5 | 0.00 | 0.00 | 0.00 | 33 | 1007.3 |
| 20260504210453 | 23 | 142 | 4.8 | 22.5 | 0.00 | 0.00 | 0.00 | 33 | 1007.3 |
| 20260504205956 | 23 | 171 | 12.9 | 22.5 | 0.00 | 0.00 | 0.00 | 31 | 1007.2 |
| 20260504205453 | 23 | 169 | 6.4 | 19.3 | 0.00 | 0.00 | 0.00 | 31 | 1007.2 |
| 20260504204956 | 23 | 141 | 8.0 | 27.4 | 0.00 | 0.00 | 0.00 | 31 | 1007.2 |
| 20260504204453 | 23 | 148 | 17.7 | 22.5 | 0.00 | 0.00 | 0.00 | 33 | 1007.3 |
| 20260504203953 | 23 | 165 | 8.0 | 19.3 | 0.00 | 0.00 | 0.00 | 32 | 1007.3 |
| 20260504203453 | 23 | 188 | 11.3 | 27.4 | 0.00 | 0.00 | 0.00 | 31 | 1007.3 |
| 20260504202953 | 23 | 194 | 14.5 | 20.9 | 0.00 | 0.00 | 0.00 | 32 | 1007.3 |
| 20260504202456 | 23 | 165 | 8.0 | 20.9 | 0.00 | 0.00 | 0.00 | 31 | 1007.3 |
| 20260504201953 | 23 | 215 | 9.7 | 22.5 | 0.00 | 0.00 | 0.00 | 31 | 1007.3 |
| 20260504201453 | 22 | 141 | 9.7 | 19.3 | 0.00 | 0.00 | 0.00 | 32 | 1007.3 |
| 20260504200953 | 22 | 159 | 9.7 | 29.0 | 0.00 | 0.00 | 0.00 | 31 | 1007.3 |
| 20260504200453 | 22 | 163 | 4.8 | 19.3 | 0.00 | 0.00 | 0.00 | 32 | 1007.3 |
| 20260504195953 | 22 | 180 | 11.3 | 20.9 | 0.00 | 0.00 | 0.00 | 32 | 1007.7 |
| 20260504195453 | 22 | 135 | 4.8 | 19.3 | 0.00 | 0.00 | 0.00 | 30 | 1007.7 |
| 20260504194953 | 22 | 181 | 12.9 | 19.3 | 0.00 | 0.00 | 0.00 | 32 | 1007.7 |
| 20260504194453 | 22 | 180 | 11.3 | 27.4 | 0.00 | 0.00 | 0.00 | 31 | 1007.7 |
| 20260504193953 | 22 | 178 | 4.8 | 20.9 | 0.00 | 0.00 | 0.00 | 33 | 1007.7 |
| 20260504193456 | 22 | 194 | 6.4 | 16.1 | 0.00 | 0.00 | 0.00 | 33 | 1007.7 |
| 20260504192953 | 22 | 174 | 6.4 | 24.1 | 0.00 | 0.00 | 0.00 | 32 | 1008.1 |
| 20260504192453 | 22 | 170 | 8.0 | 20.9 | 0.00 | 0.00 | 0.00 | 30 | 1008.1 |
| 20260504191953 | 23 | 190 | 8.0 | 24.1 | 0.00 | 0.00 | 0.00 | 30 | 1008.1 |
| 20260504191453 | 23 | 208 | 4.8 | 22.5 | 0.00 | 0.00 | 0.00 | 31 | 1008.1 |
| 20260504190953 | 23 | 220 | 4.8 | 20.9 | 0.00 | 0.00 | 0.00 | 32 | 1008.1 |
| 20260504190453 | 23 | 144 | 8.0 | 24.1 | 0.00 | 0.00 | 0.00 | 31 | 1008.1 |
| 20260504185953 | 23 | 188 | 11.3 | 14.5 | 0.00 | 0.00 | 0.00 | 32 | 1008.3 |
| 20260504185453 | 23 | 177 | 6.4 | 25.7 | 0.00 | 0.00 | 0.00 | 31 | 1008.3 |
| 20260504184953 | 23 | 195 | 9.7 | 11.3 | 0.00 | 0.00 | 0.00 | 33 | 1008.3 |
| 20260504184453 | 22 | 123 | 8.0 | 22.5 | 0.00 | 0.00 | 0.00 | 32 | 1008.7 |
| 20260504183953 | 22 | 192 | 11.3 | 20.9 | 0.00 | 0.00 | 0.00 | 32 | 1008.7 |
| 20260504183453 | 22 | 338 | 3.2 | 24.1 | 0.00 | 0.00 | 0.00 | 31 | 1008.7 |
| 20260504182956 | 22 | 155 | 4.8 | 17.7 | 0.00 | 0.00 | 0.00 | 33 | 1008.7 |
| 20260504182453 | 22 | 163 | 3.2 | 19.3 | 0.00 | 0.00 | 0.00 | 33 | 1008.7 |
| 20260504181953 | 22 | 157 | 6.4 | 16.1 | 0.00 | 0.00 | 0.00 | 33 | 1008.7 |
| 20260504181456 | 22 | 188 | 8.0 | 20.9 | 0.00 | 0.00 | 0.00 | 33 | 1008.8 |
| 20260504180953 | 22 | 154 | 12.9 | 22.5 | 0.00 | 0.00 | 0.00 | 34 | 1008.8 |
| 20260504180453 | 22 | 191 | 11.3 | 24.1 | 0.00 | 0.00 | 0.00 | 33 | 1008.8 |
| 20260504175953 | 22 | 153 | 19.3 | 22.5 | 0.00 | 0.00 | 0.00 | 35 | 1009.2 |
| 20260504175456 | 22 | 193 | 11.3 | 22.5 | 0.00 | 0.00 | 0.00 | 33 | 1009.2 |
| 20260504174953 | 22 | 214 | 12.9 | 19.3 | 0.00 | 0.00 | 0.00 | 34 | 1009.2 |
| 20260504174453 | 22 | 206 | 9.7 | 16.1 | 0.00 | 0.00 | 0.00 | 35 | 1009.2 |
| 20260504173953 | 22 | 187 | 14.5 | 22.5 | 0.00 | 0.00 | 0.00 | 34 | 1009.2 |
| 20260504173453 | 22 | 163 | 12.9 | 19.3 | 0.00 | 0.00 | 0.00 | 34 | 1009.2 |
| 20260504172953 | 22 | 205 | 9.7 | 17.7 | 0.00 | 0.00 | 0.00 | 33 | 1009.3 |
| 20260504172453 | 22 | 206 | 8.0 | 16.1 | 0.00 | 0.00 | 0.00 | 35 | 1009.3 |
| 20260504171953 | 23 | 188 | 11.3 | 17.7 | 0.00 | 0.00 | 0.00 | 32 | 1009.3 |